Weather History for Salzburg Flughafen, Austria

Change the Weather History Date:

Sunday, June 16, 2013

  Actual Average Record
Temperature  
Mean Temperature 71 °F -  
Max Temperature 81 °F 71 °F 88 °F (2012)
Min Temperature 61 °F 53 °F 46 °F (2014)
Cooling Degree Days 6    
Growing Degree Days 21 (Base 50)    
Moisture  
Dew Point 61 °F    
Average Humidity 73    
Maximum Humidity 100    
Minimum Humidity 43    
Precipitation  
Precipitation 0.00 in 0.21 in - ()
Sea Level Pressure  
Sea Level Pressure 30.05 in    
Wind  
Wind Speed 6 mph ()    
Max Wind Speed 13 mph    
Max Gust Speed -    
Visibility 6.5 miles    
Events Rain    
Averages and records for this station are not official NWS values.
T = Trace of Precipitation, MM = Missing Value Source: Averaged Metar Reports

Daily Weather History Graph

Daily Weather History Graph

Search for Another Location

Airport:

Trip Planner

Search our weather history database for the weather conditions in past years. The results will help you decide how hot, cold, wet, or windy it might be!

Date:

Astronomy

Jun. 16, 2013 Rise Set
Actual Time 5:08 AM CEST 9:08 PM CEST
Civil Twilight 4:27 AM CEST 9:49 PM CEST
Nautical Twilight 3:31 AM CEST 10:46 PM CEST
Astronomical Twilight 1:58 AM CEST 12:20 AM CEST
Moon 12:57 PM CEST (6/16) 12:36 AM CEST (6/16)
Length of Visible Light 17h 21m
Length of Day
15h 59m
Waxing Crescent, 47% of the Moon is Illuminated
Jun 16
Waxing Crescent
Jun 16
First Quarter
Jun 23
Full
Jun 30
Last Quarter
Jul 8
New

Hourly Weather History & Observations

Time (CEST) Temp. Heat Index Dew Point Humidity Pressure Visibility Wind Dir Wind Speed Gust Speed Precip Events Conditions
12:20 AM 66.2 °F - 62.6 °F 88% 30.09 in 6.2 mi SSW 4.6 mph - N/A Rain Rain Showers
12:50 AM 64.4 °F - 62.6 °F 94% 30.09 in 6.2 mi SE 5.8 mph - N/A Rain Light Rain
1:20 AM 64.4 °F - 62.6 °F 94% 30.09 in 6.2 mi SE 6.9 mph - N/A Rain Light Rain
1:50 AM 64.4 °F - 60.8 °F 88% 30.06 in 6.2 mi SSE 12.7 mph - N/A   Mostly Cloudy
2:00 AM 64 °F - 62 °F 89% 30.04 in 25 mi SSE 13.4 mph - -  
2:20 AM 62.6 °F - 60.8 °F 94% 30.06 in 6.2 mi SSE 10.4 mph - N/A   Mostly Cloudy
2:50 AM 62.6 °F - 60.8 °F 94% 30.06 in 6.2 mi SSE 10.4 mph - N/A   Overcast
3:20 AM 62.6 °F - 60.8 °F 94% 30.06 in 6.2 mi SE 8.1 mph - N/A   Overcast
3:50 AM 62.6 °F - 60.8 °F 94% 30.06 in 6.2 mi SSE 6.9 mph - N/A   Scattered Clouds
4:20 AM 62.6 °F - 60.8 °F 94% 30.06 in 6.2 mi South 8.1 mph - N/A   Mostly Cloudy
4:50 AM 60.8 °F - 60.8 °F 100% 30.06 in 6.2 mi South 9.2 mph - N/A   Mostly Cloudy
5:00 AM 62 °F - 60 °F 92% 30.05 in 22 mi South 8.9 mph - -   Scattered Clouds
5:20 AM 60.8 °F - 59.0 °F 94% 30.06 in 6.2 mi South 8.1 mph - N/A   Mostly Cloudy
5:50 AM 60.8 °F - 59.0 °F 94% 30.06 in 6.2 mi SSE 8.1 mph - N/A   Mostly Cloudy
6:20 AM 62.6 °F - 59.0 °F 88% 30.09 in 6.2 mi South 9.2 mph - N/A   Mostly Cloudy
6:50 AM 62.6 °F - 59.0 °F 88% 30.09 in 6.2 mi SSE 8.1 mph - N/A   Mostly Cloudy
7:20 AM 62.6 °F - 59.0 °F 88% 30.09 in 6.2 mi SSE 6.9 mph - N/A   Scattered Clouds
7:50 AM 64.4 °F - 60.8 °F 88% 30.09 in 6.2 mi SSE 6.9 mph - N/A   Mostly Cloudy
8:00 AM 64 °F - 60 °F 83% 30.08 in 25 mi SSE 6.7 mph - -   Partly Cloudy
8:20 AM 66.2 °F - 60.8 °F 83% 30.09 in 6.2 mi SSE 5.8 mph - N/A   Mostly Cloudy
8:50 AM 68.0 °F - 60.8 °F 78% 30.09 in 6.2 mi Variable 2.3 mph - N/A   Mostly Cloudy
9:20 AM 69.8 °F - 60.8 °F 73% 30.09 in 6.2 mi Variable 1.2 mph - N/A   Mostly Cloudy
9:50 AM 71.6 °F - 60.8 °F 69% 30.09 in 6.2 mi Variable 1.2 mph - N/A   Mostly Cloudy
10:20 AM 71.6 °F - 59.0 °F 64% 30.09 in 6.2 mi NW 3.5 mph - N/A   Mostly Cloudy
10:50 AM 71.6 °F - 60.8 °F 69% 30.09 in 6.2 mi NNW 5.8 mph - N/A   Mostly Cloudy
11:00 AM 71 °F - 61 °F 63% 30.05 in 25 mi NNW 6.7 mph - -   Scattered Clouds
11:20 AM 71.6 °F - 62.6 °F 73% 30.09 in 6.2 mi North 4.6 mph - N/A   Mostly Cloudy
11:50 AM 73.4 °F - 60.8 °F 65% 30.06 in 6.2 mi North 5.8 mph - N/A   Scattered Clouds
12:20 PM 73.4 °F - 60.8 °F 65% 30.06 in 6.2 mi North 5.8 mph - N/A   Scattered Clouds
12:50 PM 75.2 °F - 59.0 °F 57% 30.06 in 6.2 mi Variable 4.6 mph - N/A   Scattered Clouds
1:20 PM 75.2 °F - 60.8 °F 61% 30.06 in 6.2 mi Variable 5.8 mph - N/A   Partly Cloudy
1:50 PM 77.0 °F - 62.6 °F 61% 30.04 in 6.2 mi NW 5.8 mph - N/A   Partly Cloudy
2:00 PM 76 °F - 62 °F 52% 30.00 in 25 mi NW 6.7 mph - -   Scattered Clouds
2:20 PM 77.0 °F - 62.6 °F 61% 30.04 in 6.2 mi NW 4.6 mph - N/A   Partly Cloudy
2:50 PM 78.8 °F - 62.6 °F 57% 30.04 in 6.2 mi Variable 3.5 mph - N/A   Partly Cloudy
3:20 PM 78.8 °F - 60.8 °F 54% 30.04 in 6.2 mi NW 4.6 mph - N/A   Partly Cloudy
3:50 PM 80.6 °F 81.8 °F 62.6 °F 54% 30.01 in 6.2 mi North 6.9 mph - N/A   Partly Cloudy
4:20 PM 80.6 °F 81.5 °F 60.8 °F 51% 30.01 in 6.2 mi NNW 5.8 mph - N/A   Partly Cloudy
4:50 PM 80.6 °F 81.5 °F 60.8 °F 51% 30.01 in 6.2 mi North 6.9 mph - N/A   Partly Cloudy
5:00 PM 80 °F - 62 °F 43% 29.94 in 25 mi North 6.7 mph - -   Scattered Clouds
5:20 PM 80.6 °F 81.5 °F 60.8 °F 51% 30.01 in 6.2 mi NNW 8.1 mph - N/A   Partly Cloudy
5:50 PM 80.6 °F 81.8 °F 62.6 °F 54% 30.01 in 6.2 mi NNW 9.2 mph - N/A   Partly Cloudy
6:20 PM 80.6 °F 81.5 °F 60.8 °F 51% 30.01 in 6.2 mi NW 9.2 mph - N/A   Partly Cloudy
6:50 PM 78.8 °F - 60.8 °F 54% 30.01 in 6.2 mi NNW 9.2 mph - N/A   Partly Cloudy
7:20 PM 77.0 °F - 62.6 °F 61% 30.01 in 6.2 mi NNW 8.1 mph - N/A   Scattered Clouds
7:50 PM 77.0 °F - 60.8 °F 57% 30.01 in 6.2 mi North 4.6 mph - N/A   Scattered Clouds
8:00 PM 77 °F - 60 °F 47% 29.96 in 22 mi North 4.5 mph - -   Scattered Clouds
8:20 PM 77.0 °F - 60.8 °F 57% 30.04 in 6.2 mi NNE 4.6 mph - N/A   Scattered Clouds
8:50 PM 75.2 °F - 60.8 °F 61% 30.04 in 6.2 mi North 2.3 mph - N/A   Scattered Clouds
9:20 PM 73.4 °F - 64.4 °F 73% 30.04 in 6.2 mi Variable 2.3 mph - N/A   Mostly Cloudy
9:50 PM 71.6 °F - 64.4 °F 78% 30.04 in 6.2 mi NW 4.6 mph - N/A   Mostly Cloudy
10:20 PM 71.6 °F - 64.4 °F 78% 30.04 in 6.2 mi Variable 2.3 mph - N/A   Mostly Cloudy
10:50 PM 69.8 °F - 64.4 °F 83% 30.04 in 6.2 mi Variable 2.3 mph - N/A   Mostly Cloudy
11:00 PM 70 °F - 64 °F 76% 30.01 in 19 mi 2.2 mph - -   Scattered Clouds
11:20 PM 69.8 °F - 64.4 °F 83% 30.04 in 6.2 mi South 4.6 mph - N/A   Mostly Cloudy
11:50 PM 68.0 °F - 62.6 °F 83% 30.04 in 6.2 mi SE 5.8 mph - N/A Rain Light Rain Showers